GFSSE_850_dewp_249.txt.gz
Dewpoint
4 -3 1 5 14 13 11 10 6 -2 -7 -9 -12 -11 -12 -14 -13 -11 -11 -11 -11 -11 -12 -13 -13 -13 -13 -13 -14 -15 -12 -6 -2 0 5 7 8 8 9 11 10 10 10
1 -3 2 7 14 11 10 8 0 -6 -9 -11 -10 -10 -9 -9 -11 -11 -13 -16 -17 -18 -19 -19 -18 -19 -19 -16 -13 -13 -10 2 9 10 9 7 9 7 10 10 9 8 10
4 -1 4 12 13 10 8 3 -4 -8 -11 -10 -13 -13 -12 -12 -15 -17 -15 -12 -10 -9 -9 -9 -9 -9 -11 -15 -13 -11 5 8 9 11 9 8 5 7 7 6 6 5 5
3 1 4 12 10 8 5 -1 -7 -10 -10 -12 -13 -13 -14 -18 -13 -10 -10 -9 -8 -8 -8 -7 -7 -8 -9 -11 -13 -9 3 7 8 9 8 6 2 -2 -1 -1 2 3 4
2 3 3 7 9 7 3 -5 -9 -10 -11 -13 -14 -15 -18 -12 -11 -10 -10 -9 -9 -8 -8 -7 -7 -7 -7 -9 -11 -10 -6 -2 5 7 7 5 1 -8 -8 -7 -5 -3 -2
2 5 8 11 11 7 1 -7 -10 -10 -13 -14 -14 -18 -11 -11 -11 -10 -9 -8 -7 -7 -7 -7 -7 -7 -7 -7 -7 -5 -4 -6 -5 -3 -1 -4 -6 1 -2 1 -2 4 1
3 10 13 12 10 6 -2 -8 -10 -11 -14 -14 -17 -13 -11 -11 -9 -8 -7 -7 -7 -7 -7 -7 -7 -7 -7 -7 -6 -3 -1 -2 -3 -2 -5 -7 -4 5 6 6 9 6 5
5 13 14 13 10 5 -5 -9 -10 -12 -14 -16 -18 -11 -11 -10 -8 -8 -8 -8 -8 -8 -8 -7 -7 -7 -7 -7 -6 -3 1 -1 -1 -4 -7 -9 1 7 8 8 7 6 6
9 11 12 12 9 4 -5 -9 -10 -12 -14 -17 -15 -11 -10 -8 -8 -9 -9 -8 -8 -8 -8 -8 -8 -8 -8 -7 -5 -3 -2 -0 -2 4 6 8 8 8 8 8 8 8 7
13 11 11 12 8 2 -6 -8 -10 -12 -14 -18 -12 -11 -9 -8 -9 -9 -8 -8 -8 -8 -9 -9 -9 -8 -7 -6 -2 1 -1 2 6 8 9 9 9 9 8 7 8 8 7
15 13 9 12 7 -1 -6 -8 -9 -12 -14 -16 -10 -10 -9 -8 -8 -9 -8 -8 -9 -10 -10 -9 -7 -6 -4 -2 0 1 0 4 8 7 7 8 8 7 9 9 9 8 7
14 13 10 11 7 -1 -5 -7 -9 -12 -14 -15 -9 -9 -8 -8 -9 -8 -8 -9 -10 -10 -10 -9 -7 -3 -1 -0 1 -0 -1 0 4 1 8 8 8 9 8 8 5 6 7
13 11 12 12 8 -0 -5 -6 -8 -11 -13 -14 -8 -9 -9 -7 -8 -8 -7 -10 -9 -9 -10 -8 -5 -4 -1 1 2 1 2 -4 -3 -1 7 7 7 8 8 8 8 8 6
13 11 11 11 7 1 -3 -5 -6 -10 -12 -13 -8 -7 -8 -7 -7 -8 -7 -9 -9 -9 -9 -7 -4 -2 -0 1 1 1 2 -3 -7 -5 -1 3 8 7 8 8 8 8 8
13 12 11 10 8 4 1 -2 -4 -8 -10 -11 -9 -7 -6 -6 -8 -9 -8 -10 -10 -8 -8 -6 -4 -2 -1 -1 1 0 0 -3 -7 -7 -6 -5 -4 2 7 8 8 8 8
12 11 12 10 9 8 6 -0 -1 -5 -7 -9 -9 -6 -7 -6 -7 -8 -8 -9 -10 -9 -8 -6 -1 -1 -2 -2 -3 -3 -4 -3 -4 -7 -10 -11 -11 -12 -11 -4 8 9 8
12 11 11 10 9 9 7 2 2 -2 -5 -9 -10 -7 -6 -6 -5 -9 -8 -9 -10 -10 -9 -7 -1 1 0 -0 -1 -2 -3 -4 -6 -6 -4 -4 -5 -5 -6 -11 -3 7 8
12 11 11 10 9 9 7 5 2 -1 -5 -7 -10 -8 -6 -6 -6 -9 -9 -9 -10 -10 -10 -8 -5 1 1 2 1 -0 -1 -3 -4 -4 -5 -5 -5 -6 -7 -7 -9 -6 -1
11 12 11 11 10 10 8 6 2 -0 -4 -6 -9 -9 -7 -6 -7 -9 -9 -9 -10 -10 -10 -9 -7 -1 1 2 0 1 -1 -3 -4 -4 -6 -7 -7 -7 -7 -7 -7 -7 -7
12 12 12 11 11 10 8 6 5 2 -1 -5 -8 -10 -8 -8 -8 -9 -9 -9 -10 -10 -9 -8 -8 -2 1 2 2 1 -0 -2 -2 -3 -5 -7 -8 -8 -9 -7 -6 -7 -7
13 13 12 12 11 11 8 6 5 2 1 -2 -6 -8 -10 -8 -8 -9 -9 -9 -9 -10 -10 -9 -8 -5 -0 1 -0 1 1 -2 -1 -1 -3 -8 -8 -9 -9 -8 -7 -6 -8
9 13 13 12 12 11 10 5 4 2 2 1 -2 -6 -8 -8 -8 -8 -9 -9 -9 -10 -10 -10 -9 -6 -2 0 -1 -1 1 0 -0 1 -0 -7 -8 -9 -9 -9 -7 -6 -7
10 11 11 12 12 12 11 8 5 4 4 3 2 -2 -6 -9 -8 -9 -9 -9 -9 -9 -10 -10 -9 -8 -7 -3 0 0 2 2 -1 0 -2 -6 -7 -8 -8 -8 -7 -6 -6
8 9 10 11 12 12 11 9 5 4 3 3 3 3 -1 -8 -8 -8 -8 -9 -9 -9 -9 -9 -9 -9 -9 -7 -2 -0 -2 -0 -1 -1 -0 -2 -5 -6 -7 -6 -7 -6 -6
8 7 8 10 12 12 11 10 8 6 5 4 4 5 3 -4 -7 -7 -8 -9 -9 -9 -9 -9 -9 -9 -10 -9 -6 -4 -3 -3 -2 -2 -1 -3 -3 -2 -3 -4 -4 -4 -4
8 9 9 10 12 12 12 11 10 8 5 5 5 6 5 -0 -6 -7 -7 -8 -8 -8 -8 -9 -9 -9 -9 -9 -9 -10 -10 -8 -4 -2 -3 -3 -2 -1 -1 -2 -2 -2 -3

GFSSE_850_dewp_255.txt.gz
Dewpoint
6 5 2 9 12 13 12 8 4 -4 -9 -12 -13 -14 -14 -15 -17 -18 -18 -17 -17 -16 -17 -17 -16 -16 -17 -16 -13 -9 -5 8 8 6 6 5 8 10 9 9 9 9 10
1 1 4 12 13 13 9 7 -1 -8 -11 -13 -14 -16 -18 -18 -17 -16 -15 -14 -14 -14 -14 -14 -14 -14 -14 -15 -13 -9 -6 -1 2 3 7 7 5 5 6 8 8 10 10
1 -0 10 12 13 11 9 3 -6 -10 -13 -13 -15 -16 -16 -17 -17 -18 -19 -18 -17 -16 -17 -18 -17 -16 -14 -13 -9 -3 3 7 7 4 3 5 1 4 4 4 3 3 4
-1 0 7 13 14 11 7 -2 -9 -12 -13 -15 -16 -15 -17 -20 -20 -17 -13 -11 -9 -9 -9 -10 -13 -13 -11 -6 -2 1 5 4 4 2 -2 -2 -0 -1 2 4 -1 -2 -2
-1 -1 9 15 14 9 4 -5 -11 -13 -14 -17 -17 -17 -18 -14 -12 -12 -11 -10 -9 -8 -8 -9 -12 -11 -8 -2 0 1 2 2 4 -1 -5 -7 -6 -0 -5 -7 -6 -5 -5
-2 0 13 14 11 8 1 -7 -12 -13 -16 -17 -19 -17 -12 -11 -11 -12 -11 -10 -9 -8 -8 -8 -10 -10 -6 -4 -2 -2 -2 -1 -1 -3 -8 -7 -3 7 8 4 5 1 -3
-0 9 14 14 12 7 -2 -9 -12 -14 -17 -18 -20 -12 -12 -12 -11 -10 -10 -9 -9 -8 -7 -7 -8 -9 -8 -7 -6 -5 -4 -4 -5 -6 -6 2 7 9 8 8 8 8 7
3 12 14 14 12 5 -4 -9 -12 -15 -17 -19 -15 -13 -12 -11 -10 -9 -9 -9 -9 -8 -8 -8 -7 -5 -5 -4 -3 -2 -1 -4 -7 -4 5 9 9 9 9 9 9 9 9
14 12 13 12 10 4 -5 -10 -11 -15 -17 -19 -13 -12 -11 -9 -9 -10 -9 -9 -8 -8 -8 -8 -7 -6 -4 -2 -0 -0 2 3 2 8 9 8 8 9 9 8 4 9 9
14 14 15 13 9 3 -5 -9 -11 -15 -17 -16 -13 -12 -10 -9 -10 -9 -8 -8 -8 -8 -8 -7 -6 -5 -3 -1 1 4 6 7 9 8 8 8 10 9 10 9 7 5 3
13 14 12 13 10 3 -5 -7 -11 -14 -17 -13 -12 -10 -9 -10 -10 -8 -8 -8 -8 -8 -8 -7 -7 -4 -2 1 3 7 7 7 7 6 4 9 9 9 6 5 5 6 4
12 12 12 13 10 2 -5 -8 -10 -12 -17 -12 -11 -9 -9 -10 -9 -8 -8 -9 -9 -8 -7 -4 -4 -4 -2 0 3 7 6 4 5 9 8 5 8 7 8 6 6 7 9
12 12 12 13 10 2 -5 -8 -10 -12 -13 -10 -10 -8 -9 -9 -8 -8 -9 -10 -9 -7 -7 -6 -4 -3 -1 -0 2 5 5 5 6 8 8 9 9 9 7 6 5 9 7
12 11 12 13 9 2 -4 -7 -10 -12 -10 -9 -9 -7 -9 -10 -9 -9 -10 -9 -8 -6 -5 -4 -4 -3 -1 1 1 -1 4 3 3 3 8 8 8 8 9 7 6 2 1
10 12 12 12 10 3 -4 -6 -9 -12 -12 -9 -8 -7 -8 -10 -9 -9 -10 -9 -9 -7 -4 -4 -4 -3 -2 0 1 -4 -2 1 0 -1 1 6 8 9 9 9 9 9 9
10 12 11 12 11 4 -3 -5 -7 -11 -13 -9 -8 -6 -6 -9 -9 -9 -10 -9 -8 -6 -3 -3 -2 -3 -2 -1 -2 -6 -5 -5 -4 -4 -4 -2 6 9 9 9 9 9 8
11 11 11 12 11 5 -1 -4 -6 -9 -11 -9 -7 -6 -6 -7 -8 -9 -9 -9 -8 -6 -3 -1 -0 -1 -2 -2 -4 -4 -5 -8 -9 -8 -8 -8 -5 7 9 9 9 8 7
13 12 12 11 11 9 1 -3 -5 -8 -11 -9 -6 -5 -6 -6 -6 -8 -8 -9 -9 -7 -4 -2 -1 -1 -3 -3 -5 -4 -5 -6 -4 -4 -5 -6 -7 -1 5 7 7 7 7
13 12 11 10 10 8 4 0 -3 -6 -9 -10 -9 -6 -6 -6 -5 -7 -8 -8 -9 -8 -5 -2 -1 -2 -2 -2 -2 -4 -4 -4 -5 -6 -6 -6 -7 -7 -0 5 4 5 6
12 12 11 10 10 10 7 5 0 -3 -5 -6 -8 -9 -6 -6 -5 -6 -7 -8 -8 -7 -7 -2 -1 0 -1 -1 -1 -2 -2 -4 -4 -6 -6 -7 -6 -6 -6 -6 -3 0 4
12 12 12 11 10 10 9 8 5 2 -1 -3 -5 -8 -7 -6 -5 -6 -7 -7 -9 -9 -8 -4 -0 0 1 0 -1 -1 0 -0 -2 -4 -7 -7 -8 -6 -5 -6 -6 -6 -7
10 13 13 12 11 10 10 9 8 5 2 -1 -3 -4 -7 -5 -6 -6 -8 -10 -10 -9 -8 -7 -3 0 1 1 -1 -0 2 1 1 0 -5 -7 -8 -7 -5 -4 -5 -7 -7
6 9 12 13 12 10 10 9 9 8 5 2 -0 -3 -5 -5 -5 -6 -7 -8 -9 -10 -10 -8 -6 -4 -2 0 -0 -3 -0 -0 2 2 -3 -6 -7 -8 -6 -4 -4 -5 -6
4 3 6 10 12 12 11 10 10 9 8 4 1 -1 -4 -6 -5 -4 -6 -7 -8 -9 -8 -10 -7 -5 -5 -4 -1 -3 -4 -5 1 1 -1 -3 -4 -6 -6 -4 -3 -4 -4
1 4 7 9 11 12 11 11 10 10 10 8 3 1 -2 -4 -4 -4 -5 -5 -6 -8 -8 -9 -8 -6 -6 -5 -5 -4 -3 -1 -4 -2 -2 -3 -3 -4 -3 -2 -3 -3 -3
-3 -3 2 7 9 10 11 11 11 10 10 10 6 3 1 -3 -4 -5 -5 -6 -7 -8 -9 -9 -8 -8 -7 -4 -4 -4 -5 -4 -3 -6 -4 -3 -4 -3 -2 -2 -1 -1 -1

GFSSE_850_dewp_258.txt.gz
Dewpoint
6 3 2 2 12 13 13 9 6 2 -3 -6 -8 -10 -12 -13 -14 -14 -15 -15 -15 -15 -14 -14 -15 -16 -15 -12 -11 -6 10 8 6 4 3 9 12 10 9 10 10 10 10
2 3 2 9 13 13 13 8 3 -4 -8 -11 -13 -14 -14 -15 -16 -18 -18 -18 -17 -16 -16 -16 -16 -15 -15 -14 -11 -3 -0 2 2 3 5 5 6 7 8 8 9 10 10
3 3 3 13 13 13 11 6 -1 -8 -11 -13 -14 -15 -16 -16 -15 -16 -16 -17 -17 -17 -17 -15 -15 -15 -13 -11 -5 -3 2 5 4 4 5 1 2 4 3 2 2 2 7
5 2 7 12 13 13 7 4 -5 -10 -12 -13 -15 -16 -15 -15 -16 -17 -19 -19 -18 -16 -15 -16 -15 -14 -11 -8 -5 -2 3 2 -1 -4 -6 -4 -4 -0 7 6 -2 -4 -3
6 3 13 13 13 12 8 0 -8 -12 -10 -13 -15 -15 -18 -18 -17 -14 -12 -10 -10 -10 -11 -12 -12 -12 -9 -6 -2 0 2 2 -0 -4 -8 -7 -4 5 5 1 3 5 -0
5 10 13 14 14 11 7 -4 -9 -10 -10 -13 -15 -19 -18 -13 -11 -11 -10 -10 -10 -10 -10 -11 -11 -9 -6 -2 -1 -1 -0 2 1 -6 -7 -4 3 8 8 7 4 2 4
6 12 13 14 14 9 4 -6 -10 -11 -14 -14 -17 -17 -13 -12 -11 -11 -11 -10 -10 -9 -9 -10 -9 -8 -6 -6 -6 -6 -5 -3 -4 -5 -3 2 8 8 7 7 7 7 6
8 11 13 13 14 9 1 -7 -9 -12 -15 -16 -18 -13 -13 -12 -12 -10 -9 -9 -8 -8 -8 -9 -9 -8 -7 -6 -5 -5 -4 -5 -5 1 7 7 8 9 9 8 9 7 6
9 11 12 13 14 9 -1 -8 -9 -12 -15 -18 -14 -14 -13 -12 -10 -9 -9 -8 -8 -8 -8 -7 -7 -6 -5 -4 -3 -4 -5 -1 3 6 7 7 8 9 6 5 9 8 8
10 12 12 13 13 9 -1 -8 -10 -13 -15 -16 -13 -13 -11 -10 -10 -9 -8 -8 -8 -8 -8 -8 -7 -5 -4 -3 -1 2 2 4 8 7 9 9 9 10 8 6 3 4 7
11 12 12 13 13 8 1 -3 -9 -12 -15 -13 -12 -12 -10 -10 -10 -9 -8 -8 -8 -8 -8 -8 -6 -5 -4 -1 4 6 5 6 6 9 9 10 10 8 5 6 5 8 8
11 12 13 12 12 8 1 -2 -7 -11 -13 -13 -12 -10 -9 -10 -9 -8 -8 -8 -8 -7 -8 -7 -5 -3 -1 1 6 7 5 5 5 5 7 6 6 7 5 7 8 8 7
13 12 13 11 12 8 1 -2 -6 -11 -15 -10 -10 -9 -9 -10 -8 -8 -8 -9 -9 -9 -8 -5 -3 -2 0 3 6 5 5 6 8 8 10 10 9 6 6 8 9 8 4
12 12 12 11 11 10 2 -4 -8 -11 -12 -9 -9 -8 -9 -10 -8 -8 -9 -8 -8 -8 -7 -5 -3 -2 -1 1 4 4 5 6 5 7 9 9 10 8 6 5 3 3 8
9 10 12 11 10 12 4 -3 -7 -10 -13 -9 -9 -8 -9 -10 -9 -9 -9 -8 -6 -6 -5 -4 -3 -2 -1 -0 -1 2 3 2 2 4 8 9 10 10 9 8 9 9 9
8 8 8 12 10 12 5 -1 -6 -10 -12 -9 -9 -8 -8 -9 -9 -9 -10 -8 -6 -4 -4 -3 -2 -2 -1 -1 -4 -1 -2 -2 -3 -3 7 8 10 10 9 9 9 8 8
5 7 8 8 12 11 7 -2 -5 -9 -12 -9 -8 -7 -8 -8 -8 -9 -9 -9 -7 -4 -3 -2 -1 -1 -0 -1 -6 -5 -4 -5 -5 -8 -6 7 9 10 10 9 9 8 7
6 5 7 6 12 11 8 -2 -4 -8 -12 -10 -7 -5 -5 -7 -6 -7 -8 -8 -8 -4 -2 -1 -1 -0 -1 -2 -5 -6 -7 -9 -7 -7 -8 -6 8 9 9 8 7 7 7
9 7 7 8 12 11 8 -1 -3 -7 -10 -11 -7 -6 -5 -5 -5 -5 -7 -8 -7 -6 -2 -2 -1 -1 -1 -2 -4 -4 -5 -4 -4 -5 -6 -6 -1 5 8 7 5 6 6
8 9 10 8 12 11 8 1 -1 -4 -8 -11 -9 -6 -5 -5 -4 -4 -5 -6 -7 -6 -4 -2 -1 0 -3 -4 -3 -4 -4 -5 -6 -6 -6 -7 -7 -1 6 5 4 4 6
11 11 6 9 12 11 10 3 1 -2 -5 -9 -7 -6 -4 -4 -4 -4 -5 -6 -7 -6 -5 -2 -0 -1 -1 -2 -3 -2 -3 -3 -4 -6 -6 -6 -5 -6 -5 -1 3 2 -1
10 9 11 11 10 10 9 5 2 -1 -3 -6 -5 -4 -4 -4 -4 -2 -4 -5 -7 -6 -5 -2 -1 -1 0 -1 -2 -2 -0 -1 -1 -4 -6 -6 -6 -4 -4 -5 -3 -3 -4
10 10 11 11 10 10 9 8 6 2 0 -2 -2 -2 -3 -4 -3 -2 -2 -4 -5 -6 -6 -3 -1 -1 -1 0 -1 -3 -0 -0 0 -0 -5 -6 -6 -6 -4 -3 -5 -6 -7
8 10 12 12 11 11 10 9 9 7 4 2 0 -1 -2 -4 -1 -1 -1 -3 -3 -6 -6 -5 -2 -0 -2 -1 -1 -3 -4 -5 0 0 -2 -4 -5 -5 -4 -2 -2 -4 -5
6 8 10 10 11 12 11 10 10 9 9 8 5 2 -1 -2 -4 -2 -2 -2 -2 -3 -6 -6 -5 -2 -1 -2 -2 -2 -3 -3 -4 -2 -1 -3 -3 -4 -3 -1 -2 -3 -3
4 6 7 8 8 10 10 12 10 10 10 10 9 6 2 -0 -2 -5 -4 -2 -2 -3 -5 -6 -5 -4 -3 -1 -1 -2 -3 -4 -4 -5 -4 -3 -3 -3 -2 0 0 -0 -1

GFSSE_850_dewp_261.txt.gz
Dewpoint
9 3 9 10 8 11 13 7 7 8 8 6 4 1 -2 -5 -7 -9 -11 -11 -12 -13 -13 -14 -14 -11 -1 4 9 9 9 7 5 5 8 11 12 10 9 8 8 11 9
7 4 4 5 10 12 14 10 8 5 0 -3 -5 -8 -10 -12 -13 -12 -12 -13 -14 -15 -15 -15 -15 -9 -8 8 8 5 4 4 3 4 4 7 8 7 7 9 10 11 11
6 4 3 6 13 13 12 9 6 -0 -5 -8 -10 -12 -13 -14 -14 -14 -11 -9 -12 -15 -16 -16 -12 -11 -8 8 5 -0 3 2 2 4 2 1 1 -0 3 4 4 7 10
8 5 3 12 14 14 12 8 3 -5 -8 -9 -8 -8 -8 -13 -11 -6 -2 -9 -15 -16 -16 -16 -14 -9 -1 11 3 3 2 -0 -4 -4 -4 -3 7 3 2 -3 -4 -3 5
8 5 8 13 13 14 12 6 -2 -8 -10 -4 -1 -2 0 -5 -3 1 -10 -15 -14 -15 -15 -14 -12 -10 2 9 1 0 -1 -3 -5 -7 -8 -6 3 4 -5 -8 -3 -0 6
7 4 11 13 14 14 10 5 -6 -7 -4 -3 -5 -5 4 2 0 -1 -9 -9 -10 -11 -12 -12 -10 -7 -4 -2 -2 -2 -2 -3 -6 -8 -6 0 6 6 4 1 2 1 8
7 4 12 13 12 13 9 2 -7 -1 3 -2 -1 2 8 6 -1 -9 -9 -9 -10 -10 -11 -11 -10 -7 -6 -5 -5 -4 -2 -3 -6 -2 4 7 9 8 9 9 9 7 2
7 7 14 13 13 13 11 0 1 2 -3 -4 3 7 7 -2 -10 -10 -10 -9 -10 -10 -10 -10 -9 -8 -7 -7 -6 -5 -4 -5 -1 3 5 8 10 10 9 9 6 8 9
7 10 13 12 12 13 11 5 8 7 -5 -9 1 6 -3 -11 -11 -10 -9 -9 -9 -9 -9 -9 -8 -7 -7 -6 -5 -6 -7 -3 2 5 5 9 9 5 9 9 8 8 8
7 10 12 12 12 13 11 11 10 4 -3 -1 -1 -7 -11 -10 -10 -9 -8 -9 -8 -8 -8 -8 -7 -6 -5 -5 -5 -5 -3 0 7 8 9 10 10 6 5 4 8 9 9
10 10 11 11 12 12 11 11 11 8 3 -6 -9 -12 -11 -10 -9 -9 -9 -9 -8 -8 -7 -6 -6 -6 -5 -2 1 2 3 8 9 9 11 11 9 4 6 9 7 7 7
11 11 11 11 12 12 11 12 11 8 8 -1 -11 -12 -10 -10 -9 -9 -9 -8 -8 -8 -7 -7 -6 -4 -1 2 3 3 4 7 8 9 7 6 4 7 7 8 8 4 6
11 11 12 11 12 11 11 8 10 1 -2 -1 -8 -10 -9 -10 -9 -9 -9 -8 -8 -8 -7 -6 -4 -3 1 3 3 3 3 6 8 9 9 8 5 7 10 9 3 8 9
12 12 11 12 11 11 11 3 2 -1 -3 -2 -5 -8 -9 -10 -9 -9 -9 -9 -9 -8 -6 -4 -3 -1 2 4 2 3 2 6 9 9 10 9 6 7 9 6 5 10 9
12 12 13 12 12 11 11 5 1 0 -5 -5 -6 -6 -9 -10 -9 -9 -9 -9 -9 -7 -5 -4 -2 -1 1 4 3 3 1 -0 6 9 9 10 9 7 5 5 10 8 8
11 11 11 12 12 11 10 10 0 -2 -3 -5 -7 -6 -8 -9 -9 -9 -10 -9 -8 -6 -4 -3 -2 -0 1 1 3 2 -0 -3 4 8 9 9 10 10 9 10 9 8 7
7 9 9 10 7 12 11 11 5 -4 -4 -5 -7 -6 -7 -8 -9 -9 -10 -8 -6 -5 -3 -2 -1 0 0 -1 1 1 -1 -4 -4 5 9 9 9 10 10 9 8 8 7
6 7 6 5 6 8 11 12 7 -4 -6 -7 -7 -6 -6 -7 -8 -9 -9 -7 -5 -3 -2 -2 -1 -1 0 -2 -3 -2 -3 -4 -6 -5 8 9 9 9 9 8 7 6 6
7 8 7 4 7 7 8 11 7 -3 -6 -8 -6 -6 -6 -7 -7 -8 -8 -7 -5 -3 -2 -2 -1 -1 -0 -3 -4 -5 -6 -7 -7 -7 -5 8 9 8 8 7 6 5 5
7 8 8 6 7 8 8 11 8 -1 -3 -8 -7 -5 -4 -5 -5 -5 -6 -7 -7 -2 -1 -0 0 1 -1 -3 -4 -6 -5 -3 -4 -6 -6 -5 4 8 8 7 5 5 6
8 7 9 7 7 8 10 11 8 -1 -4 -6 -6 -4 -2 -3 -4 -4 -5 -5 -7 -4 -2 0 1 0 0 -2 -3 -3 -3 -4 -4 -4 -6 -7 -2 4 6 6 5 2 1
2 5 10 11 9 9 10 11 10 -0 -4 -5 -6 -3 -1 -1 -2 -2 -3 -4 -5 -4 -0 -0 0 1 -0 -1 -3 -4 -2 -2 -4 -4 -4 -3 -4 -3 1 3 5 3 0
4 8 11 10 10 9 11 11 9 1 -0 -1 -5 -4 -2 -1 -1 -1 -1 -3 -5 -5 -2 -1 0 -0 -1 -1 -3 -4 -2 -1 -2 -4 -5 -4 -3 -3 -3 -0 1 -0 -4
8 10 11 10 9 9 12 12 8 3 -0 -2 -5 -7 -4 -3 -1 -1 -0 -1 -2 -5 -4 -2 -1 -0 -1 -3 -2 -4 -4 -5 -2 -1 -4 -5 -5 -2 -2 -3 -4 -6 -6
8 9 11 10 10 10 9 11 9 5 2 -1 -3 -5 -4 -3 -3 -2 -1 -0 -1 -2 -4 -4 -4 -1 1 -1 -2 -3 -3 -4 -3 -3 -2 -4 -4 -3 -1 -1 -1 -3 -4
7 8 10 11 10 10 11 11 8 8 7 5 1 -1 -1 -2 -3 -4 -2 -1 -1 -2 -3 -5 -4 -4 -0 -0 0 -1 -3 -3 -4 -4 -4 -3 -4 -3 -3 -1 -0 -1 -2